Regional Weather Roundup
Issued by NWS

Home | Current Version | Previous Version | Text Only | Print | Product List | Glossary Off
Versions: 1 2 3 4 5 6 7 8 9 10 11 12 13 14 15 16 17 18 19 20 21 22 23 24 25 26 27 28 29 30 31 32 33 34 35 36 37 38 39 40 41 42 43 44 45 46 47 48 49 50

000
ASUS43 KLSX 132107
RWRMO

WEATHER SUMMARY FOR MISSOURI
NATIONAL WEATHER SERVICE SPRINGFIELD MO
300 PM CST WED DEC 13 2017

NOTE: "FAIR" INDICATES FEW OR NO CLOUDS BELOW 12,000 FEET WITH NO
       SIGNIFICANT WEATHER AND/OR OBSTRUCTIONS TO VISIBILITY.
       CURRENT SKY AND/OR WEATHER CONDITIONS ARE NOT AVAILABLE FOR
       CHILLICOTHE AND FARMINGTON.

MOZ001>031-035>038-043-044-053-054-132200-
...NORTHERN AND WESTERN MISSOURI...

CITY           SKY/WX    TMP DP  RH WIND       PRES   REMARKS
KANSAS CTY INT SUNNY     58  27  30 NW16G26   29.76R
KANSAS C DTWN  SUNNY     59  27  29 NW20G31   29.74R
LEE`S SUMMIT   SUNNY     58  28  32 NW23G32   29.75R
ST JOSEPH      SUNNY     56  30  37 NW24G35   29.76R
CHILLICOTHE      N/A     56  28  34 NW16G32   29.70R
KIRKSVILLE     SUNNY     50  36  58 NW22G33   29.65R

$$
MOZ066>068-077>081-088>096-101>105-132200-
...SOUTHWEST MISSOURI...

CITY           SKY/WX    TMP DP  RH WIND       PRES   REMARKS
SPRINGFIELD    SUNNY     58  26  29 W14G22    29.76S
JOPLIN         SUNNY     61  28  28 W13       29.80S
BRANSON        MOSUNNY   57  25  28 W17G23    29.77F

$$
MOZ032>034-039>042-045>050-055>058-069>072-132200-
...CENTRAL MISSOURI...

CITY           SKY/WX    TMP DP  RH WIND       PRES   REMARKS
COLUMBIA       SUNNY     58  31  35 NW24G36   29.66R
JEFFERSON CITY SUNNY     59  31  34 W21G35    29.66R
ROLLA          SUNNY     58  29  33 W17G29    29.66S
SEDALIA        SUNNY     60  32  34 NW20G25   29.72R
WHITEMAN AFB   SUNNY     59  29  32 NW18G30   29.68R
WARRENSBURG    SUNNY     59  28  31 NW20G29   29.73R
OSAGE BEACH    SUNNY     59  29  31 W8        29.70R

$$
MOZ051-052-059>065-132200-
...EAST CENTRAL MISSOURI...

CITY           SKY/WX    TMP DP  RH WIND       PRES   REMARKS
ST LOUIS INTL  MOSUNNY   57  30  35 W26G33    29.57R
SPIRIT OF STL  MOSUNNY   59  30  33 W22G36    29.58R
ST CHARLES     PTSUNNY   57  29  34 W18G31    29.55R

$$
MOZ072>076-082>087-097>100-106>115-132200-
...SOUTH CENTRAL AND SOUTHEAST MISSOURI...

CITY           SKY/WX    TMP DP  RH WIND       PRES   REMARKS
CAPE GIRARDEAU SUNNY     51  24  34 SW18G31   29.65F
FARMINGTON     SUNNY     58  28  32 NW20G25   29.63R
POPLAR BLUFF   SUNNY     56  29  35 SW10      29.68F
WEST PLAINS    SUNNY     60  23  24 W13G24    29.72R

$$



USA.gov is the U.S. government's official web portal to all federal, state and local government web resources and services.